Erie, PA

6:12 PM EST on November 20, 2019 (GMT -0500)
Erie International

Weather History for KERI - September, 2019

Change the Weather History Date:

Sunday, September 1, 2019

  Actual Average Record
Temperature  
Mean Temperature 70 °F 68 °F  
Max Temperature 77 °F 77 °F 94 °F (1943)
Min Temperature 62 °F 60 °F 44 °F (1970)
Degree Days  
Heating Degree Days 0 1  
Month to date heating degree days 0 1  
Since 1 July heating degree days 1 19  
Cooling Degree Days 4 4  
Month to date cooling degree days 5 4  
Year to date cooling degree days 695 562  
Growing Degree Days 20 (Base 50)    
Moisture  
Dew Point 60 °F    
Average Humidity 74    
Maximum Humidity 94    
Minimum Humidity 53    
Precipitation  
Precipitation 0.93 in 0.13 in 1.87 in (1980)
Month to date precipitation 0.93 0.13  
Year to date precipitation 27.25 25.96  
Snow  
Snow 0.00 in 0.00 in - ()
Month to date snowfall 0.0 0.0  
Since 1 July snowfall 0.0 0.0  
Since 1 September snowfall 0.0 0.0  
Snow Depth 0.00 in    
Sea Level Pressure  
Sea Level Pressure 30.14 in    
Wind  
Wind Speed 7 mph ()    
Max Wind Speed 23 mph    
Max Gust Speed 29 mph    
Visibility 8.2 miles    
Events Rain , Thunderstorm    
T = Trace of Precipitation, MM = Missing Value Source: Averaged Metar Reports

Daily Weather History Graph

Daily Weather History Graph

Search for Another Location

Airport or City:

Astronomy

Sep. 01, 2019 Rise Set
Actual Time 6:45 AM EDT 7:54 PM EDT
Civil Twilight 6:17 AM EDT 8:23 PM EDT
Nautical Twilight 5:42 AM EDT 8:57 PM EDT
Astronomical Twilight 5:06 AM EDT 9:33 PM EDT
Moon 9:16 AM EDT (9/1) 9:38 PM EDT (9/1)
Length of Visible Light 14h 06m
Length of Day
13h 08m
Waxing Crescent, 8% of the Moon is Illuminated
Sep 1
Waxing Crescent
Sep 5
First Quarter
Sep 14
Full
Sep 21
Last Quarter
Sep 28
New

Hourly Weather History & Observations

Time (EDT) Temp. Dew Point Humidity Pressure Visibility Wind Dir Wind Speed Gust Speed Precip Events Conditions
12:51 AM 64.0 °F 48.9 °F 58% 30.27 in 10.0 mi East 8.1 mph - N/A   Overcast
1:51 AM 63.0 °F 50.0 °F 63% 30.25 in 10.0 mi ENE 6.9 mph - N/A   Clear
2:51 AM 64.0 °F 50.0 °F 60% 30.25 in 10.0 mi Calm Calm - N/A   Mostly Cloudy
3:51 AM 64.0 °F 50.0 °F 60% 30.23 in 10.0 mi Calm Calm - N/A   Overcast
4:51 AM 63.0 °F 51.1 °F 65% 30.22 in 10.0 mi Variable 3.5 mph - 0.00 in Rain Light Rain
5:51 AM 64.9 °F 51.1 °F 61% 30.21 in 10.0 mi SE 5.8 mph - 0.00 in   Partly Cloudy
6:51 AM 66.0 °F 51.1 °F 59% 30.20 in 10.0 mi SE 11.5 mph - N/A   Clear
7:51 AM 66.0 °F 52.0 °F 60% 30.22 in 10.0 mi SSE 8.1 mph - N/A   Mostly Cloudy
8:51 AM 66.0 °F 52.0 °F 60% 30.22 in 10.0 mi SSE 11.5 mph - N/A   Partly Cloudy
9:51 AM 71.1 °F 54.0 °F 55% 30.22 in 10.0 mi Variable 3.5 mph - N/A   Clear
10:51 AM 72.0 °F 55.0 °F 55% 30.20 in 10.0 mi South 10.4 mph - N/A   Mostly Cloudy
11:51 AM 73.9 °F 57.9 °F 57% 30.19 in 10.0 mi South 6.9 mph - N/A   Mostly Cloudy
12:51 PM 75.9 °F 60.1 °F 58% 30.18 in 10.0 mi SSE 13.8 mph - N/A   Overcast
1:51 PM 73.9 °F 62.1 °F 66% 30.17 in 10.0 mi South 10.4 mph - N/A   Overcast
2:51 PM 75.9 °F 62.1 °F 62% 30.13 in 10.0 mi SSW 6.9 mph - N/A   Scattered Clouds
3:01 PM 75.9 °F 62.1 °F 62% 30.14 in 10.0 mi South 13.8 mph 20.7 mph N/A   Mostly Cloudy
3:34 PM 73.9 °F 62.1 °F 66% 30.13 in 10.0 mi South 9.2 mph - 0.00 in Thunderstorm Overcast
3:51 PM 73.9 °F 63.0 °F 68% 30.12 in 10.0 mi South 6.9 mph - 0.00 in Thunderstorm Overcast
4:04 PM 73.9 °F 63.0 °F 68% 30.13 in 10.0 mi NNW 11.5 mph 17.3 mph N/A   Overcast
4:38 PM 70.0 °F 62.1 °F 76% 30.11 in 10.0 mi NNE 10.4 mph - N/A   Overcast
4:51 PM 70.0 °F 62.1 °F 76% 30.10 in 10.0 mi ENE 8.1 mph - N/A   Overcast
5:00 PM 71.1 °F 62.1 °F 73% 30.11 in 10.0 mi ENE 6.9 mph - N/A   Overcast
5:38 PM 71.1 °F 63.0 °F 75% 30.09 in 9.0 mi NE 5.8 mph - 0.00 in Rain Light Rain
5:51 PM 70.0 °F 64.0 °F 81% 30.08 in 10.0 mi NE 4.6 mph - 0.00 in   Mostly Cloudy
6:10 PM 70.0 °F 64.0 °F 81% 30.10 in 10.0 mi North 13.8 mph 18.4 mph 0.00 in Rain , Thunderstorm Light Rain
6:18 PM 69.1 °F 64.0 °F 84% 30.10 in 10.0 mi North 15.0 mph 23.0 mph 0.00 in Rain , Thunderstorm Light Rain
6:25 PM 68.0 °F 63.0 °F 84% 30.09 in 10.0 mi NNE 17.3 mph 24.2 mph 0.00 in Rain , Thunderstorm Light Rain
6:32 PM 68.0 °F 63.0 °F 84% 30.11 in 10.0 mi NNW 10.4 mph 28.8 mph 0.00 in Rain , Thunderstorm Light Thunderstorms and Rain
6:44 PM 66.9 °F 63.0 °F 87% 30.13 in 1.5 mi Variable 3.5 mph 18.4 mph 0.18 in Rain , Thunderstorm Heavy Thunderstorms and Rain
6:47 PM 66.2 °F 64.4 °F 94% 30.13 in 0.8 mi NE 5.8 mph 18.4 mph 0.25 in Rain , Thunderstorm Heavy Thunderstorms and Rain
6:51 PM 66.9 °F 64.0 °F 90% 30.12 in 0.8 mi WSW 4.6 mph - 0.43 in Rain , Thunderstorm Heavy Thunderstorms and Rain
6:58 PM 66.9 °F 64.0 °F 90% 30.12 in 1.0 mi NNE 12.7 mph - 0.12 in Rain , Thunderstorm Heavy Thunderstorms and Rain
7:03 PM 66.9 °F 64.0 °F 90% 30.12 in 1.5 mi NE 12.7 mph - 0.18 in Rain , Thunderstorm Heavy Rain
7:05 PM 66.9 °F 63.0 °F 87% 30.12 in 1.8 mi NE 10.4 mph - 0.19 in Rain Heavy Rain
7:12 PM 66.9 °F 64.0 °F 90% 30.11 in 3.0 mi ENE 11.5 mph - 0.23 in Rain Rain
7:51 PM 66.9 °F 64.0 °F 90% 30.11 in 10.0 mi South 10.4 mph - 0.27 in Rain Light Rain
7:57 PM 66.9 °F 64.0 °F 90% 30.10 in 1.8 mi SE 6.9 mph - 0.08 in Rain Heavy Rain
8:07 PM 66.9 °F 64.0 °F 90% 30.09 in 3.0 mi ESE 9.2 mph - 0.21 in Rain Light Rain
8:51 PM 66.9 °F 64.0 °F 90% 30.06 in 10.0 mi SE 5.8 mph - 0.22 in Rain Light Rain
9:51 PM 68.0 °F 63.0 °F 84% 30.06 in 10.0 mi SSE 8.1 mph - 0.01 in   Overcast
10:51 PM 68.0 °F 64.0 °F 87% 30.05 in 10.0 mi SSE 8.1 mph - 0.00 in   Overcast
11:51 PM 69.1 °F 64.0 °F 84% 30.04 in 10.0 mi South 9.2 mph - 0.00 in Rain Light Rain